Weather Roundup
Issued by NWS Springfield, MO

Home | Current Version | Previous Version | Text Only | Print | Product List | Glossary On
Versions: 1 2 3 4 5 6 7 8 9 10 11 12 13 14 15 16 17 18 19 20 21 22 23 24 25 26 27 28 29 30 31 32 33 34 35 36 37 38 39 40 41 42 43 44 45 46 47 48 49 50
000
NZUS99 KSGF 241407
HRRSGF

HOURLY WEATHER
NATIONAL WEATHER SERVICE SPRINGFIELD MO
900 AM CDT TUE MAY 24 2016

......SGF CWA......

CITY           SKY/WX    TMP DP  RH WIND       PRES   REMARKS
SPRINGFIELD    CLOUDY    69  63  81 S13       29.98R
JOPLIN         SUNNY     74  66  76 S12G23    29.94R
WEST PLAINS    CLOUDY    67  60  78 S5        30.04S
ROLLA          CLOUDY    70  62  76 S8        30.00R
OSAGE BEACH      N/A    N/A N/A N/A MISG        N/A
BRANSON        CLOUDY    68  66  94 CALM      30.02R

......SURROUNDING SGF CWA......

CITY           SKY/WX    TMP DP  RH WIND       PRES   REMARKS
CHANUTE        CLOUDY    67  63  87 N9        29.97R
PARSONS        CLOUDY    71  67  87 S3        29.96R
COFFEYVILLE    CLOUDY    72  66  81 S3        29.95R
EMPORIA        LGT RAIN  63  58  83 W9        30.04R
GROVE OK       PTSUNNY   75  68  78 S15G21    29.95S
ROGERS AR      PTSUNNY   72  68  87 S7        30.00S
SILOAM SPRINGS MOSUNNY   73  61  64 S14G21    29.99S
HARRISON AR    PTSUNNY   73  65  75 S7        30.02R
NEAR YELLVILLE CLOUDY   N/A N/A N/A CALM      29.99R

......KANSAS AND MISSOURI......

CITY           SKY/WX    TMP DP  RH WIND       PRES   REMARKS
KANSAS CTY INT CLOUDY    66  63  90 SW8       29.94R
DOWNTOWN KC    CLOUDY    67  63  87 W6        29.94R
COLUMBIA       CLOUDY    70  62  76 S10       29.99R
SEDALIA        LGT RAIN  69  64  84 CALM      30.00R
ST JOSEPH      CLOUDY    66  62  87 S3        29.89R
ST LOUIS       PTSUNNY   72  57  59 S9        30.01S
SPIRIT OF STL  PTSUNNY   73  60  63 VRB5      29.99S
KIRKSVILLE     PTSUNNY   69  63  81 SW6       29.97R
WICHITA        CLOUDY    68  64  87 NE14      29.95R
TOPEKA         CLOUDY    64  60  87 VRB5G20   29.98R
OLATHE         MOSUNNY   64  63  96 S7        29.94R

......TENNESSEE......

CITY           SKY/WX    TMP DP  RH WIND       PRES   REMARKS
MEMPHIS        PTSUNNY   78  58  49 S8        30.08R
NASHVILLE      PTSUNNY   71  51  49 S3        30.13S

......ARKANSAS.......

CITY           SKY/WX    TMP DP  RH WIND       PRES   REMARKS
FAYETTEVILLE   CLOUDY    73  67  81 S12       30.00S
FT SMITH       LGT RAIN  70  66  87 NE3       30.00R
LITTLE ROCK    CLOUDY    77  67  71 SW10      30.04R

......OKLAHOMA.......

CITY           SKY/WX    TMP DP  RH WIND       PRES   REMARKS
TULSA          CLOUDY    73  69  87 S12       29.91R
PONCA CITY     CLOUDY    73  69  87 E5        29.93R
MCALESTER      LGT RAIN  73  63  70 S8G22     29.91F
OKLAHOMA CITY  MOSUNNY   74  67  78 S16G26    29.88R

......IOWA............

CITY           SKY/WX    TMP DP  RH WIND       PRES   REMARKS
DES MOINES     CLOUDY    67  61  81 SE6       29.91F
QUAD CITIES    SUNNY     73  58  59 S7        29.94S

......ILLINOIS........

CITY           SKY/WX    TMP DP  RH WIND       PRES   REMARKS
QUINCY         SUNNY     72  58  61 S7        29.98R
CHICAGO        MOSUNNY   72  53  51 SW12      29.99F




USA.gov is the U.S. government's official web portal to all federal, state and local government web resources and services.